Wind_Speed
15 14 13 13 12 12 11 12 13 14 15 14 14 13 12 11 11 12 13 13 14 14 15 15 15 15 15 15 15 15 14 15 15 15 15 15 15 15 15 14 13 12 12 11 11 11 11 12 12 12 12 12 12 12 12 11 10 10 10 10 9 9 8 7 6 6 5 4 3 2 2 2 2 2 2 2 2 2 2 2 2 2 3 3 3
13 12 11 12 12 12 12 13 14 15 15 15 14 13 12 11 12 12 13 14 14 14 15 15 15 15 15 15 15 15 15 15 15 15 15 16 16 16 15 15 14 13 12 11 11 12 12 13 13 13 12 12 12 12 11 10 10 10 10 10 9 9 8 8 7 6 5 4 3 2 2 2 2 2 2 2 2 2 2 2 2 2 3 2 3
10 10 11 12 12 12 12 13 14 15 15 16 15 13 13 12 12 13 14 14 15 15 15 15 14 15 15 16 16 16 16 16 16 16 16 16 16 16 15 15 14 13 12 12 12 12 12 12 13 13 12 12 12 11 11 10 11 10 10 10 9 9 8 8 7 6 5 4 3 2 2 2 1 1 1 2 2 2 2 2 3 3 3 3 3
9 9 11 11 12 12 13 14 14 15 15 16 15 14 13 13 13 13 14 15 15 15 15 14 14 15 15 16 16 16 16 16 16 16 15 16 16 16 15 15 14 14 13 13 12 12 12 13 13 12 12 12 11 11 11 11 11 10 10 9 9 8 8 8 7 7 6 4 3 2 2 1 1 1 1 2 2 2 2 3 3 3 3 3 4
8 9 11 11 12 12 13 13 13 14 14 15 14 14 13 13 13 13 14 15 15 15 15 14 14 14 15 15 16 16 16 16 16 16 15 16 16 16 16 15 14 14 14 13 13 13 13 13 13 12 12 12 11 11 11 11 11 10 10 9 9 9 8 8 8 7 6 5 4 3 2 2 1 1 2 2 2 2 3 3 3 3 4 4 4
8 9 10 11 11 11 12 12 13 13 14 14 14 13 13 14 14 14 14 15 15 15 15 14 14 14 14 15 15 15 16 16 16 16 16 16 16 16 16 16 15 14 14 14 13 13 13 13 12 13 12 12 11 10 10 10 11 10 9 9 9 8 8 8 7 7 6 5 4 3 2 2 2 2 2 2 2 3 3 3 4 4 4 4 4
9 9 10 11 11 11 11 12 12 13 13 13 13 13 13 14 14 15 15 15 15 15 15 14 14 14 14 15 15 15 15 16 16 16 16 16 17 17 17 16 16 14 14 14 14 13 13 13 13 13 12 11 10 9 9 10 10 10 9 10 9 9 8 8 7 7 6 5 4 3 3 3 3 2 2 2 2 3 3 3 3 4 4 4 4
9 9 10 10 10 11 11 11 12 12 13 13 13 14 14 14 14 15 15 15 15 15 15 14 14 14 14 15 15 15 15 16 16 16 16 17 18 18 17 17 16 15 14 14 14 14 13 13 13 12 12 11 10 9 8 9 9 9 9 10 10 10 9 8 7 7 6 6 5 5 4 4 3 3 3 2 3 3 3 3 4 4 4 4 4
9 9 10 10 10 10 11 11 12 12 13 13 13 14 14 14 14 15 15 15 15 15 14 14 13 14 14 14 15 15 15 16 16 16 16 17 18 19 18 18 17 15 14 14 14 14 13 13 12 12 11 11 10 9 8 8 8 8 9 9 10 10 9 9 8 8 7 7 6 5 5 4 4 3 3 3 3 3 3 4 4 4 4 5 5
9 10 10 10 10 10 11 12 13 13 13 13 14 14 14 14 14 15 15 15 15 15 14 14 14 14 14 14 15 15 16 16 16 16 16 17 18 19 19 19 17 16 15 14 14 14 14 13 12 11 11 11 10 9 8 7 7 8 8 9 9 10 9 9 9 9 8 7 6 5 5 5 4 4 4 3 3 3 3 4 4 5 5 5 5
10 10 11 11 11 11 12 13 13 13 13 14 14 14 14 14 14 15 15 15 15 15 14 14 14 14 14 13 15 16 16 16 16 16 16 17 18 19 20 20 18 16 15 14 14 14 14 14 13 11 11 11 10 9 8 7 6 6 7 7 8 8 9 9 10 9 8 8 7 6 5 5 5 5 5 4 4 4 4 5 5 5 5 5 6
11 11 12 12 12 12 13 13 13 14 14 14 14 14 14 14 15 15 15 16 15 15 15 15 14 14 13 13 14 15 16 16 16 16 17 17 18 19 20 20 18 17 16 15 15 14 14 14 13 12 11 11 10 9 8 7 6 5 5 5 6 7 8 9 9 8 8 8 7 7 6 6 6 6 6 5 5 6 6 6 6 6 6 6 6
11 12 13 13 13 13 14 14 13 14 14 14 14 14 14 15 15 15 16 16 16 15 15 15 15 15 14 13 14 15 16 15 15 16 17 18 18 19 20 20 18 17 16 15 15 15 14 14 14 13 11 11 10 9 8 7 6 5 4 5 6 7 8 9 8 8 8 8 7 7 7 6 6 6 6 6 6 7 7 7 7 7 7 7 7
12 13 14 14 14 15 15 14 14 14 14 14 14 14 15 15 15 16 16 17 16 16 16 16 16 15 14 14 14 15 16 15 15 16 17 18 19 19 19 20 19 16 15 15 15 15 14 13 13 13 11 11 10 9 7 7 6 5 5 5 6 6 7 8 9 9 9 9 8 7 7 6 6 6 6 6 7 7 8 8 8 8 8 8 8
13 14 15 15 16 16 16 16 15 15 14 14 14 14 15 15 15 16 17 17 17 16 16 16 16 16 14 14 15 15 16 16 16 16 17 18 19 20 19 19 19 17 15 15 15 15 14 13 12 12 11 11 10 8 7 6 6 6 5 5 6 6 7 8 10 11 11 10 9 8 7 7 7 7 7 7 7 8 8 8 9 9 9 9 9
14 16 16 18 18 18 18 17 16 15 14 13 14 14 15 15 15 16 17 17 17 16 16 17 17 16 15 15 16 16 16 15 16 17 17 19 20 21 20 18 18 17 15 14 15 15 14 13 12 11 11 11 10 8 7 6 6 6 6 6 7 7 8 9 11 12 12 11 10 9 8 8 8 8 7 7 8 8 8 9 9 10 10 10 9
16 18 19 21 21 20 18 17 16 14 14 14 14 14 15 15 16 16 17 18 18 17 16 17 18 17 16 16 16 16 16 15 15 16 18 19 21 22 21 19 17 16 16 15 15 16 15 14 12 11 10 10 10 9 8 7 6 6 7 7 7 8 9 10 11 12 12 11 11 10 9 9 8 8 8 8 8 8 9 9 10 10 10 10 10
18 21 23 23 22 20 18 17 16 16 16 16 15 15 15 16 16 18 18 19 19 18 17 18 18 18 17 17 16 16 16 15 14 16 18 19 21 23 23 21 17 16 16 15 14 16 16 14 13 12 10 9 9 9 8 7 7 7 7 8 8 9 9 10 11 12 11 11 11 10 9 9 9 8 8 7 8 8 9 10 10 11 11 11 11
22 24 21 18 17 16 16 17 17 18 18 18 18 17 18 18 18 19 20 20 20 19 19 19 19 19 18 18 17 16 16 14 14 15 17 19 22 23 24 22 19 16 15 15 14 15 16 15 14 13 11 10 9 8 8 7 7 6 7 8 9 9 10 11 11 11 11 10 10 9 9 9 9 8 7 7 8 9 10 11 11 12 12 12 12
24 22 18 17 16 16 17 18 19 19 20 20 19 19 21 22 21 21 21 21 20 20 20 20 19 19 18 18 18 17 16 14 14 15 16 18 22 24 25 24 22 18 15 14 15 15 16 16 14 13 12 11 10 8 7 7 7 6 6 7 8 9 10 11 11 11 10 10 10 9 9 9 9 8 8 9 9 11 11 12 12 12 13 13 13
23 21 19 19 17 16 16 18 19 20 20 19 18 20 23 22 22 22 22 21 20 21 21 21 20 19 19 19 18 18 16 15 14 15 16 17 21 24 25 25 23 21 18 14 15 16 16 16 15 13 13 12 11 9 8 8 7 6 6 7 8 9 10 10 10 10 10 10 11 11 10 10 10 10 10 10 11 12 12 13 13 13 14 14 14
21 20 20 19 18 16 16 17 20 20 20 19 21 25 25 22 22 22 21 20 20 21 22 22 21 20 19 19 19 19 17 15 15 16 16 17 20 23 25 25 24 23 20 16 14 16 16 16 15 14 13 13 12 10 9 8 7 6 6 7 7 8 9 10 10 9 9 10 11 11 11 12 11 11 11 11 12 12 13 13 14 14 14 14 15
20 20 20 20 19 18 16 17 19 20 21 22 24 26 24 20 19 20 19 20 20 20 22 22 21 20 19 19 19 19 18 17 16 17 17 17 19 22 24 24 24 24 21 17 15 15 15 15 15 14 13 13 12 11 11 9 7 6 6 7 7 8 9 10 10 9 9 10 10 10 11 11 11 12 12 13 13 14 15 15 15 15 14 14 14
21 21 21 21 21 19 19 18 19 21 21 21 23 25 23 19 16 15 16 19 19 20 22 22 21 20 20 20 20 19 19 17 16 18 18 17 18 20 22 24 25 24 20 18 17 16 15 15 15 15 13 13 12 12 12 11 8 7 7 7 8 8 9 9 9 9 8 9 10 10 10 11 11 12 13 14 15 16 16 16 16 16 15 14 14
21 21 22 22 22 21 21 21 22 22 20 20 22 23 22 18 16 13 14 18 20 21 22 21 20 19 20 21 20 20 19 18 18 20 19 17 17 19 21 22 24 23 20 18 17 16 16 16 16 15 14 14 13 13 13 13 9 8 8 8 8 9 9 9 8 7 7 9 9 9 10 11 11 12 13 14 15 16 16 16 16 16 15 14 13
20 22 22 22 21 21 21 22 24 22 19 20 20 21 21 18 18 16 15 17 20 22 21 20 19 20 21 21 21 21 20 19 20 21 20 17 16 18 20 22 23 22 20 18 17 18 18 16 16 15 15 15 15 14 14 13 10 8 9 9 9 9 9 9 8 7 7 9 9 10 10 11 12 13 14 15 16 16 16 15 15 15 15 14 14
20 22 22 21 21 22 21 22 23 20 17 19 18 18 19 18 18 18 18 17 19 20 19 19 18 20 22 22 23 23 22 22 22 22 21 18 16 18 19 21 21 21 20 18 16 16 17 17 17 15 16 16 16 16 15 14 11 9 9 9 9 9 9 9 8 7 7 9 10 10 10 11 12 13 14 15 16 15 15 15 15 15 15 14 14
21 22 22 22 23 22 20 21 23 19 18 18 17 17 18 18 18 18 16 16 18 18 18 17 17 20 22 23 23 24 23 23 24 23 22 20 18 17 19 20 19 20 20 18 15 13 15 18 17 16 17 17 17 16 15 14 11 10 9 9 9 9 10 9 8 7 7 9 9 10 10 10 11 13 14 15 15 14 14 15 15 15 15 14 13
21 21 22 23 22 19 19 22 22 20 18 17 17 19 18 17 18 17 14 15 19 19 18 17 19 20 21 23 24 25 24 24 24 24 23 22 19 18 17 18 18 18 19 18 16 15 17 19 18 18 18 18 18 16 15 14 12 11 10 9 9 9 9 9 9 7 7 8 9 9 10 10 11 13 14 14 14 14 13 14 15 15 15 14 12
21 21 23 24 22 20 21 22 19 17 18 17 18 19 15 14 17 19 17 18 20 20 19 18 19 18 20 23 23 24 25 24 25 25 24 22 20 17 16 16 16 17 18 18 17 17 18 19 20 20 20 19 18 16 14 14 13 12 11 10 10 9 9 9 8 7 6 7 8 9 9 10 11 12 13 13 13 13 13 13 15 15 14 13 11
21 21 23 24 22 22 23 20 17 17 19 19 19 18 16 15 16 19 20 20 19 20 20 19 19 19 22 24 23 23 24 24 24 25 24 22 19 17 15 15 16 16 17 18 17 18 19 20 20 21 21 20 18 16 15 15 14 13 12 11 10 9 9 9 8 7 6 7 8 9 9 10 11 12 12 13 13 13 12 13 14 15 14 12 11
20 21 23 24 23 22 22 22 20 20 21 20 19 17 16 17 17 18 20 21 19 20 19 20 21 22 23 24 24 25 25 25 25 25 24 21 19 17 16 16 16 16 17 17 17 17 19 20 21 21 22 20 18 17 16 16 16 14 13 12 11 10 10 10 8 7 7 7 8 9 9 10 11 11 12 12 13 12 12 12 14 14 14 12 10
20 22 23 23 22 21 22 24 22 19 18 18 18 16 15 16 17 17 19 20 20 20 21 22 22 22 24 25 25 25 27 28 28 28 26 23 21 20 18 18 16 16 16 16 17 18 19 21 22 22 22 21 20 19 17 17 17 15 13 13 11 10 10 10 9 9 8 7 8 9 9 10 11 11 12 11 11 11 11 12 14 14 14 12 9
20 22 24 23 22 22 22 23 21 17 16 16 18 17 14 15 16 16 18 19 19 20 22 23 22 22 24 25 25 25 27 28 29 30 28 24 22 22 21 20 18 18 18 18 18 19 20 21 22 23 23 21 21 20 19 18 17 15 14 14 12 11 11 11 10 10 9 8 9 10 10 11 11 11 11 10 10 10 10 12 14 14 13 11 8
20 21 22 23 23 22 21 19 18 16 15 15 17 17 15 16 18 18 19 19 19 19 21 23 24 25 26 26 25 25 27 27 29 30 29 26 24 22 22 21 21 21 21 20 20 20 20 21 21 23 23 21 21 20 19 18 17 16 15 14 13 11 11 11 10 10 9 9 9 10 10 11 12 11 10 10 10 9 10 12 13 14 13 11 7
19 19 20 21 22 21 19 18 17 15 14 15 15 16 16 18 18 19 20 20 19 19 21 22 24 27 27 26 24 25 27 27 27 27 27 27 25 24 23 22 22 22 22 21 21 20 20 21 21 21 21 21 20 20 19 18 17 16 15 14 14 12 11 11 11 11 10 10 10 10 11 12 12 12 10 9 9 10 11 12 12 13 12 9 6
17 17 18 19 20 20 19 18 18 16 15 16 15 15 16 17 18 19 21 21 21 20 21 21 23 26 26 23 22 24 26 26 26 25 25 27 26 25 24 22 23 23 22 22 20 19 20 20 20 20 20 20 20 20 19 18 17 16 15 15 14 13 12 12 12 11 11 10 10 10 11 12 12 12 11 10 10 11 12 12 11 11 10 8 6
16 16 17 17 17 18 19 18 18 18 18 17 16 15 16 17 19 19 20 22 23 22 21 21 24 27 26 23 23 25 26 25 24 23 25 27 25 25 24 23 22 22 23 23 21 19 19 19 19 19 19 20 20 20 20 19 18 17 16 16 15 15 14 14 13 11 10 10 10 10 11 12 12 12 12 11 11 12 12 11 10 9 8 8 6
16 16 15 15 15 15 15 16 17 17 17 16 16 15 16 17 19 20 21 22 24 23 22 23 25 28 28 26 26 26 24 24 25 24 27 27 23 23 23 22 22 23 23 24 22 20 19 19 20 20 20 20 21 21 21 20 19 18 17 16 17 17 16 15 13 11 10 10 10 10 11 12 12 12 12 12 12 12 10 9 9 8 8 8 6
16 15 15 14 13 13 13 14 15 15 15 16 16 16 17 18 20 22 23 24 25 25 24 24 25 28 30 30 30 28 25 27 28 26 27 25 22 21 21 22 24 24 24 24 23 21 20 20 20 21 21 21 21 21 21 21 20 19 18 17 17 17 16 15 13 11 10 10 10 10 11 12 12 11 12 12 12 12 10 9 8 6 7 8 6
16 15 14 13 14 14 14 14 15 15 16 17 17 17 18 19 20 22 24 26 26 26 26 25 26 28 30 31 30 28 28 29 28 27 26 24 22 22 22 23 24 24 23 23 22 21 20 20 21 22 21 20 20 20 20 21 21 20 18 17 17 15 15 15 13 12 11 11 11 11 11 12 12 11 11 11 12 12 11 9 8 6 6 7 6
15 14 14 14 15 15 14 15 15 15 16 17 17 18 19 20 21 22 25 26 27 27 27 27 27 28 29 30 29 29 29 29 27 27 26 25 25 25 24 23 23 23 23 22 21 21 21 20 21 22 21 20 19 19 18 20 21 20 19 18 16 15 15 14 13 12 11 11 11 11 11 13 13 12 12 11 11 12 12 11 9 8 7 6 7
15 15 15 15 15 15 15 15 15 16 17 17 18 19 20 21 22 23 25 27 28 29 29 28 28 28 29 30 28 28 29 28 27 27 28 27 27 28 26 24 23 23 23 22 21 22 22 21 21 21 20 20 19 18 18 19 20 19 19 18 17 16 15 15 14 13 12 11 11 11 12 13 13 13 12 11 11 12 12 12 11 10 8 7 7
15 15 15 15 16 16 16 16 16 17 17 17 18 18 19 20 21 23 25 27 29 30 30 30 29 29 30 30 29 28 28 28 28 28 29 29 28 28 28 25 23 23 24 24 22 22 23 22 21 20 20 20 19 18 20 19 18 19 19 18 18 16 16 15 14 13 12 12 11 11 12 13 13 13 13 12 11 11 11 12 12 12 10 9 8
15 15 15 15 15 16 16 16 16 16 17 18 18 18 18 20 21 23 25 27 29 31 31 31 30 30 31 31 31 29 27 27 29 29 29 28 28 27 28 26 24 23 23 23 23 23 24 24 22 21 21 21 20 20 21 19 18 19 18 18 18 16 16 16 14 13 12 12 11 11 12 13 14 14 13 12 12 11 11 11 11 11 11 10 9
15 15 15 15 15 16 16 16 16 17 18 19 19 19 19 21 23 24 26 27 28 31 32 32 32 31 31 31 31 31 29 28 30 31 29 28 27 26 27 27 24 23 23 24 24 23 24 24 23 23 23 23 22 22 23 21 19 19 19 18 18 16 16 16 14 13 13 12 12 12 13 14 14 15 14 12 11 12 11 11 10 10 10 10 10
15 15 16 16 16 16 16 15 17 17 18 19 20 20 21 22 23 24 26 27 28 30 32 33 33 32 32 32 32 32 30 29 30 31 31 30 27 27 28 28 26 24 24 24 23 23 24 23 23 23 23 24 23 23 23 21 19 19 19 18 18 17 17 16 15 14 14 13 13 13 13 14 15 15 15 13 12 13 12 11 11 10 10 10 10
16 16 16 17 16 16 16 16 17 17 17 19 20 21 22 23 23 25 26 28 29 30 32 34 34 33 33 33 34 33 32 31 31 31 32 32 29 28 29 28 26 25 24 24 24 24 24 23 23 23 23 25 25 24 24 22 19 19 19 19 19 18 18 18 16 15 15 14 14 14 14 15 16 16 16 14 13 13 13 12 11 11 10 10 11
16 17 17 16 16 16 16 17 18 18 18 20 21 22 22 23 24 25 27 28 30 31 32 34 34 33 33 34 34 34 33 33 32 31 32 32 29 27 27 27 26 25 25 25 24 24 24 23 22 22 22 24 24 24 23 20 19 19 19 19 19 19 19 19 17 16 16 15 15 15 15 16 17 17 17 15 14 14 14 13 12 11 11 11 12
16 16 16 15 16 16 16 18 18 19 20 21 23 23 24 24 25 26 27 28 30 31 32 34 35 34 33 33 34 34 34 33 32 31 30 28 27 27 27 26 26 25 25 24 23 24 24 23 22 20 20 21 20 21 20 19 20 20 19 19 20 19 19 19 18 18 17 17 16 16 16 17 17 18 17 16 15 14 14 14 14 13 11 11 12
15 15 15 15 16 16 17 18 19 20 21 22 24 25 25 26 26 27 28 29 30 32 33 34 35 35 33 32 33 33 34 33 32 31 28 26 25 26 26 25 26 25 24 23 22 23 23 23 23 21 20 20 19 20 20 20 20 20 19 19 19 19 19 19 19 19 18 18 17 17 17 17 18 18 18 17 16 15 15 15 15 14 13 12 12
Wind_Direction
284 285 287 289 288 289 296 302 307 308 309 310 312 317 322 326 328 330 331 333 335 336 337 337 338 340 341 338 336 336 337 338 342 347 350 351 351 352 352 353 352 351 348 347 346 345 347 351 355 359 2 3 4 5 7 9 14 17 19 21 22 23 25 26 27 27 28 29 34 33 34 54 66 63 47 31 17 13 23 23 34 41 42 43 45
283 285 286 287 288 293 300 304 307 307 308 309 312 318 322 326 328 331 332 333 334 335 335 335 338 339 340 337 336 335 336 338 342 348 350 353 354 355 356 356 354 352 351 351 351 350 353 356 360 3 5 8 12 14 15 19 23 26 26 26 25 25 27 28 31 33 34 35 42 44 46 52 55 51 40 26 16 12 23 25 27 34 35 36 45
281 283 284 286 290 298 304 306 308 307 309 310 315 319 323 326 329 332 331 332 332 332 332 333 336 338 338 335 333 333 335 337 341 346 348 353 356 358 359 358 354 352 352 353 355 355 357 360 3 4 6 13 19 21 24 27 29 30 29 27 25 26 28 30 33 38 39 37 40 46 53 62 59 57 50 32 20 14 21 23 18 20 21 24 34
277 280 283 288 294 302 305 306 307 308 310 312 317 320 323 326 327 330 329 329 328 329 329 330 333 336 335 331 330 330 333 336 340 344 347 352 357 360 1 0 356 353 352 354 357 359 0 3 5 6 9 16 22 26 29 32 32 31 28 26 24 24 26 29 30 32 36 34 34 35 39 60 69 65 60 41 27 16 13 17 12 8 8 17 27
276 280 284 290 295 302 303 305 307 309 311 313 316 319 322 323 325 326 326 325 324 324 324 326 329 332 330 326 325 327 331 335 340 343 347 351 357 1 2 3 359 355 353 354 358 1 3 6 7 8 13 17 23 27 30 32 31 29 26 23 21 20 21 23 24 24 26 26 26 25 24 33 32 40 46 35 26 12 7 6 3 2 3 11 18
276 282 286 290 296 300 301 305 307 308 309 310 313 316 319 320 322 321 321 320 320 319 319 321 324 326 323 321 321 324 329 333 339 342 346 351 356 0 3 3 0 357 353 353 357 1 3 7 10 11 14 18 22 25 29 31 30 27 23 21 18 16 16 17 17 16 16 16 14 10 14 15 9 21 28 20 21 12 5 1 358 359 358 1 3
276 282 285 290 294 297 299 302 302 303 304 306 309 312 315 316 317 316 316 315 315 313 313 315 318 318 315 315 318 322 327 332 338 340 345 350 354 359 1 2 1 359 354 353 356 360 2 8 12 12 14 16 19 22 29 31 30 25 20 18 16 13 10 10 9 8 7 5 3 358 5 7 0 9 12 6 12 8 0 358 355 352 350 351 349
276 280 282 287 291 293 294 294 294 295 297 302 306 308 310 311 311 310 309 308 308 306 305 309 311 310 309 312 315 320 325 330 335 338 343 348 353 356 359 359 359 358 355 352 354 357 1 7 12 12 13 14 15 19 26 31 30 25 20 17 14 13 9 6 3 1 359 359 358 356 359 359 357 358 353 350 3 2 356 354 351 349 346 345 343
276 280 282 286 288 288 286 285 286 289 294 299 301 303 304 305 304 303 301 301 301 299 298 301 304 302 304 309 314 318 322 328 332 336 341 346 351 355 357 357 357 357 354 350 352 356 358 4 10 12 12 12 12 14 22 26 28 26 22 19 16 13 11 8 4 2 359 359 357 355 354 353 354 348 341 345 354 355 351 352 350 348 342 341 339
281 283 285 287 285 282 279 280 282 287 292 295 298 298 299 299 299 297 295 295 295 294 292 294 296 296 300 307 311 314 318 325 330 335 339 343 349 352 355 356 356 355 352 348 349 354 357 0 5 8 11 12 12 12 18 19 22 21 18 18 16 13 11 9 7 5 360 358 356 351 347 342 343 338 335 336 339 338 341 346 347 344 338 336 333
284 284 284 284 281 277 275 277 281 286 291 294 296 297 296 296 295 293 291 290 289 288 287 288 290 291 296 303 308 310 314 322 328 333 336 339 345 350 354 356 356 354 349 345 346 352 356 358 359 3 8 12 13 14 18 15 12 12 11 11 12 13 8 8 10 5 357 357 355 348 340 335 334 329 328 328 325 325 331 336 338 338 335 332 329
282 281 280 279 276 272 272 276 281 286 290 292 294 296 295 294 293 291 290 287 285 284 283 284 285 285 291 299 303 306 311 319 326 330 333 335 340 347 353 354 355 353 347 342 342 348 354 356 354 357 3 9 12 13 17 12 3 356 353 354 359 4 2 5 7 360 356 357 355 349 341 336 334 330 329 327 325 324 326 328 329 330 329 329 327
279 277 276 274 272 270 271 274 279 284 286 289 291 292 292 291 291 289 288 285 282 280 280 282 281 282 287 294 299 303 308 316 324 328 331 332 335 343 350 352 352 350 344 339 338 343 350 354 351 353 358 6 10 11 14 9 358 346 335 335 343 352 356 1 357 350 352 354 353 353 348 343 340 337 334 330 327 327 327 327 326 326 324 323 322
275 272 270 268 267 267 269 271 275 277 279 283 286 287 288 288 287 287 287 285 280 277 277 279 279 278 283 290 295 299 306 313 321 327 329 329 330 337 345 349 348 345 339 335 335 338 343 348 348 349 353 360 5 7 8 6 357 347 334 328 333 341 349 353 349 344 343 345 347 349 349 348 347 342 339 335 332 330 328 327 323 321 320 320 320
272 269 266 263 261 262 262 264 267 270 275 280 282 282 283 284 285 285 285 282 278 274 273 274 275 275 280 286 291 297 303 311 319 324 327 327 327 331 339 345 345 340 333 331 330 331 335 340 343 345 349 353 357 1 1 359 356 351 340 331 330 334 339 342 342 341 340 340 341 341 343 346 346 344 341 337 333 331 327 323 320 318 319 319 319
269 267 264 260 256 255 256 258 264 269 273 277 278 278 280 281 282 281 279 277 274 270 268 270 271 272 276 280 286 294 300 308 316 322 325 324 324 326 332 339 343 338 328 326 325 325 327 331 336 340 343 345 347 350 351 350 353 354 346 335 330 330 332 334 334 336 337 337 338 337 338 342 343 342 339 335 330 327 323 321 320 319 319 318 317
269 267 261 255 252 251 254 259 264 268 271 272 273 275 277 277 277 275 273 271 268 265 262 264 267 268 272 276 283 291 298 308 314 318 322 321 322 323 327 332 339 336 325 321 320 319 321 324 328 333 336 336 337 341 343 342 345 352 350 340 334 332 330 329 330 332 334 336 338 337 338 341 341 339 336 333 330 327 324 321 320 318 317 316 314
266 262 256 251 249 251 259 265 268 270 272 272 273 277 279 277 274 271 268 266 264 259 256 258 261 265 269 273 279 286 294 304 309 314 318 318 319 321 322 325 331 334 323 317 314 313 314 317 320 323 327 327 327 332 335 333 338 348 349 341 335 334 330 329 330 331 333 336 339 340 340 341 341 339 336 332 328 326 324 321 320 319 317 315 313
265 263 264 267 267 269 274 272 272 274 277 281 284 287 288 284 276 270 266 264 261 257 254 254 257 261 265 270 275 280 287 296 303 309 314 314 316 318 319 320 323 327 320 310 306 306 308 310 313 316 317 316 317 323 327 326 331 342 344 339 335 334 332 330 332 332 334 338 342 343 341 341 340 338 333 326 321 319 319 320 320 319 317 314 312
271 274 284 293 291 290 288 277 271 274 282 285 286 293 295 289 281 275 268 264 263 262 259 256 256 259 263 269 273 279 285 291 297 303 310 312 313 315 316 316 318 319 315 302 295 297 300 303 305 309 310 307 308 313 317 318 324 334 336 332 330 331 331 330 333 334 336 339 342 343 341 340 338 333 326 318 314 313 314 316 316 315 314 312 311
277 284 291 293 291 294 295 290 288 288 293 291 290 304 304 291 282 277 271 268 268 267 266 263 261 261 265 271 275 280 284 287 292 298 305 309 311 313 312 313 314 314 310 298 286 285 289 294 297 301 304 302 302 306 309 311 316 324 324 321 323 325 326 328 329 329 333 337 337 337 336 334 331 325 320 315 312 312 313 313 312 310 309 308 307
280 285 288 291 293 295 296 304 307 306 311 311 309 313 306 289 278 273 270 267 268 269 268 267 264 265 268 272 277 280 283 285 288 293 301 306 308 309 309 309 310 309 306 297 283 277 277 283 289 293 298 299 299 302 302 302 307 312 309 308 314 318 320 322 321 320 326 333 334 334 333 331 328 323 319 317 316 317 317 315 312 310 307 305 304
282 284 287 291 293 294 297 306 311 312 317 318 315 311 300 285 270 268 268 261 264 267 265 265 265 267 269 272 276 279 282 282 283 290 297 303 304 305 306 306 307 305 302 296 283 271 271 276 281 286 294 298 297 298 297 296 299 300 298 297 303 308 312 314 313 315 323 332 336 335 335 332 328 324 321 320 321 322 321 319 317 314 310 306 302
283 285 287 289 290 294 299 304 306 309 314 315 314 308 297 277 258 266 268 259 264 267 263 262 262 264 267 270 272 276 280 278 279 286 291 298 300 300 303 304 304 300 296 295 284 269 267 274 276 281 291 294 292 294 295 293 295 294 289 289 293 299 304 305 308 314 324 332 336 335 334 331 328 324 322 322 323 324 324 323 321 319 316 310 304
283 285 286 288 291 296 298 301 302 304 307 309 311 306 295 268 250 270 271 260 265 265 260 257 257 261 264 267 268 270 273 273 277 283 287 293 296 298 301 303 301 295 292 295 288 271 267 273 275 280 289 291 288 289 290 289 292 289 283 282 284 292 297 298 304 312 324 331 332 331 329 327 326 324 323 324 326 326 325 325 324 322 320 315 309
281 282 286 290 294 296 294 296 295 294 297 304 305 305 297 265 250 270 275 270 264 260 260 253 251 259 263 265 265 266 267 269 273 279 284 288 293 297 298 300 297 290 288 293 289 271 264 271 275 278 286 287 288 288 286 286 287 283 278 278 280 287 290 291 298 309 324 331 330 328 327 326 326 325 325 327 327 327 327 326 327 325 322 318 314
281 282 286 288 289 286 285 289 289 288 293 298 298 303 298 269 258 272 276 270 256 258 262 247 250 263 265 266 265 266 267 270 274 279 284 286 290 293 294 296 292 286 285 291 292 272 260 270 276 276 281 285 288 288 285 284 282 278 275 275 277 282 285 287 294 306 323 330 329 326 325 326 325 325 327 327 328 328 328 328 329 328 325 321 317
282 282 284 284 282 277 280 290 290 291 295 297 299 305 298 275 271 274 274 266 257 267 262 252 269 270 265 267 267 268 270 272 276 281 284 285 289 289 289 291 287 283 283 288 295 281 268 276 279 277 280 283 289 289 283 281 280 275 271 271 274 277 281 285 291 301 318 325 327 324 323 324 324 326 328 329 330 329 328 329 330 330 327 323 320
280 282 284 283 282 281 291 296 291 293 298 303 309 313 305 289 282 271 275 289 289 286 263 266 289 274 268 272 269 270 270 273 277 280 281 283 286 285 285 285 281 279 279 286 292 288 284 285 283 280 280 283 288 288 280 279 279 272 267 266 268 273 277 280 285 294 311 321 323 321 320 322 323 327 331 332 332 331 330 331 331 331 328 326 324
282 284 285 284 286 292 297 294 290 298 305 310 312 314 308 302 292 268 278 304 302 293 269 275 292 276 276 276 272 274 272 273 276 277 279 281 283 280 279 276 275 276 277 283 288 289 291 289 286 281 280 282 286 284 277 277 275 268 263 261 263 268 272 274 280 290 305 319 319 317 317 319 323 327 330 331 331 333 333 333 334 334 331 328 327
280 281 281 284 289 294 297 297 301 308 309 308 306 309 304 303 297 271 279 296 294 293 280 279 288 280 278 272 273 279 275 275 275 276 278 278 278 276 272 268 269 273 275 280 283 286 289 289 287 282 279 281 283 280 274 274 272 265 260 257 258 261 264 268 275 287 302 317 317 316 318 318 320 324 328 329 330 332 333 334 337 338 336 333 331
279 280 281 284 290 294 300 302 306 309 307 305 303 306 301 294 288 276 284 290 289 293 281 279 287 284 279 272 275 280 278 279 278 277 276 276 276 273 266 262 265 269 273 277 279 282 285 286 286 282 279 279 280 276 272 272 270 265 260 256 255 256 260 263 271 285 298 313 318 319 319 317 316 321 327 329 330 330 332 334 337 338 338 335 334
279 281 283 287 294 299 302 301 303 308 306 306 305 302 296 285 281 286 291 291 290 286 277 280 286 286 282 275 276 281 279 280 281 280 277 276 275 272 265 261 262 266 270 273 275 279 282 283 283 281 279 278 277 274 271 271 270 267 263 258 256 256 259 261 269 283 295 309 317 321 321 316 314 320 327 329 331 330 332 336 337 338 337 335 334
279 282 286 292 299 301 301 301 303 304 302 304 301 295 294 290 291 299 299 298 297 288 284 284 281 284 285 278 278 281 281 280 281 280 277 276 273 270 267 264 265 266 266 268 270 275 277 278 279 278 277 276 275 273 271 271 270 268 265 262 259 258 259 260 269 280 291 305 317 324 323 315 311 317 325 329 332 331 334 339 338 337 337 335 333
282 285 289 294 298 300 300 300 298 296 296 297 294 293 298 299 301 305 303 301 299 295 297 293 281 280 280 280 282 282 281 280 278 276 274 274 271 269 268 265 267 267 267 269 271 274 275 276 276 275 273 272 274 272 271 271 270 268 266 265 263 260 260 262 270 279 289 303 316 325 324 312 308 315 322 328 332 330 332 337 336 336 336 336 335
286 287 292 295 297 299 298 296 295 293 292 293 296 301 304 303 302 303 303 299 295 293 294 293 283 277 276 279 282 282 282 281 277 272 270 272 268 265 265 266 268 269 270 272 273 276 277 277 275 271 268 267 270 271 270 270 267 266 266 265 263 261 262 266 273 280 290 302 314 323 321 311 308 313 320 326 328 328 331 334 335 336 336 339 339
285 288 292 293 294 298 298 299 300 299 301 303 307 312 310 309 304 301 301 298 297 293 288 286 281 277 279 279 278 284 288 282 274 267 264 269 266 260 262 266 267 268 271 271 271 275 278 277 274 267 264 265 268 269 270 269 265 265 264 262 259 259 263 269 275 280 290 300 311 319 317 312 309 313 319 324 325 328 331 334 338 340 341 344 343
285 288 289 290 291 295 298 301 302 303 308 310 314 316 313 311 306 302 300 298 298 295 288 285 282 281 283 283 282 288 290 282 273 266 263 265 261 257 261 265 263 265 271 269 267 269 272 274 270 264 263 266 267 268 269 265 260 260 261 259 257 258 262 269 274 278 286 296 306 313 313 310 309 310 316 321 324 327 331 334 338 343 346 344 338
284 287 287 289 290 293 295 296 296 300 305 307 308 311 310 307 304 303 301 299 298 296 291 286 284 283 284 286 286 286 288 284 277 268 263 263 256 255 262 262 261 266 268 265 264 264 265 268 266 262 263 265 265 266 266 259 253 255 259 261 258 257 261 267 271 272 280 293 300 306 307 306 305 306 312 317 321 325 329 335 338 346 350 343 332
284 286 288 290 291 291 291 289 290 294 296 297 299 302 304 303 303 304 302 300 298 296 293 288 285 284 284 284 284 283 282 284 282 269 262 262 255 253 258 259 262 267 265 261 262 261 262 265 262 262 264 265 265 264 263 255 246 251 260 262 260 257 258 263 265 266 276 288 293 299 303 303 300 301 307 313 319 323 327 334 336 345 351 343 333
284 286 287 288 289 288 288 288 290 293 293 293 297 298 300 300 301 301 299 298 298 296 293 289 286 283 281 279 281 283 280 282 283 272 263 260 255 253 255 259 262 265 264 259 258 259 261 262 260 262 264 263 262 262 261 251 243 250 258 259 260 257 255 257 258 260 270 280 286 295 300 299 299 299 302 309 317 320 322 327 328 334 342 339 329
283 284 285 286 287 288 288 287 289 291 291 293 296 297 298 301 301 297 294 294 294 293 291 287 284 281 281 281 283 284 281 282 282 274 264 258 256 256 256 261 262 261 260 254 254 259 260 259 258 259 261 260 259 259 255 245 242 250 254 254 257 257 255 254 253 256 263 273 282 291 295 296 298 297 297 304 313 314 316 321 321 323 330 329 319
280 282 284 287 288 289 289 288 288 288 290 293 295 297 300 301 299 295 291 291 290 289 288 286 284 282 282 284 283 282 282 281 279 273 264 259 258 255 253 258 261 259 256 248 250 259 259 257 257 257 258 258 256 253 248 243 244 249 251 252 254 255 255 253 252 254 260 270 278 286 291 293 296 293 291 298 306 307 312 318 318 319 320 316 310
278 281 284 287 288 289 289 288 288 289 291 294 294 296 298 297 297 296 293 293 290 287 286 285 284 281 279 278 279 280 282 281 278 273 266 261 259 255 251 255 260 259 255 248 248 257 258 254 254 254 256 257 253 248 245 245 246 247 248 249 250 251 253 254 253 255 261 269 276 282 286 291 295 292 288 292 297 300 308 315 317 318 316 312 309
277 280 283 285 287 286 287 287 288 289 290 290 291 292 294 294 295 296 296 296 294 290 288 286 284 281 277 276 278 279 280 281 279 275 268 261 260 257 252 257 262 259 254 250 249 256 256 252 251 252 254 254 249 245 245 245 244 245 247 248 249 251 252 253 255 257 262 267 273 278 284 290 292 290 287 287 291 297 304 310 313 315 311 307 306
276 280 283 284 285 285 285 287 286 287 289 290 291 292 293 295 296 296 297 297 296 293 291 288 285 283 280 278 277 277 278 278 278 277 270 261 260 255 249 255 259 254 253 251 251 253 253 250 250 250 251 251 247 244 244 244 243 244 246 246 248 251 251 252 253 254 259 265 270 275 281 285 286 288 289 286 289 296 300 303 307 309 304 300 298
278 280 283 283 284 283 283 285 286 288 291 291 292 293 294 295 297 297 296 295 294 292 290 289 287 284 282 279 277 277 278 276 276 278 271 262 260 254 249 255 257 253 253 253 250 251 249 247 248 249 251 251 247 243 242 242 242 243 244 245 248 252 252 254 254 255 260 264 268 272 275 280 283 286 286 282 284 292 294 296 300 302 298 295 292
278 280 281 281 280 281 283 285 288 290 291 291 292 295 296 297 297 295 295 294 293 292 291 291 289 286 283 279 278 277 277 276 276 278 275 265 258 253 251 254 257 256 255 252 248 247 247 245 245 249 252 251 247 243 240 238 240 244 246 247 250 253 255 258 259 261 264 266 268 271 272 277 281 282 282 281 283 288 290 290 293 296 293 290 286
276 277 276 277 277 280 285 287 290 291 291 292 294 296 298 298 297 295 295 294 294 293 292 291 290 288 285 281 278 276 275 276 277 279 277 265 254 251 251 251 257 259 257 252 246 245 246 244 244 247 250 250 245 239 236 237 241 242 243 247 251 254 255 258 259 259 262 263 265 268 270 275 278 278 279 279 280 283 286 287 287 289 290 288 285
273 274 272 273 277 281 286 289 291 292 293 295 296 298 299 298 298 297 295 294 293 292 290 289 288 286 286 284 280 275 274 275 275 278 276 263 251 251 249 250 257 259 256 253 247 244 245 243 240 242 245 245 238 233 237 243 242 236 238 245 249 252 254 254 254 256 258 261 263 265 268 273 276 276 276 276 278 281 283 285 284 285 288 289 286
270 271 271 273 278 283 287 289 291 293 295 296 297 298 299 298 298 297 295 294 293 292 290 289 287 285 285 285 282 277 273 273 276 278 273 260 253 251 248 251 257 257 255 254 249 245 243 240 238 240 245 246 241 242 249 250 242 236 240 247 249 252 253 252 252 255 257 259 262 264 269 272 273 274 273 273 275 278 280 281 281 282 285 286 285
Height
5877 5877 5876 5876 5876 5875 5875 5874 5874 5873 5873 5872 5872 5871 5871 5870 5869 5869 5868 5868 5867 5867 5866 5866 5865 5864 5863 5862 5861 5859 5858 5857 5855 5854 5853 5852 5850 5849 5848 5848 5846 5845 5844 5843 5842 5842 5841 5840 5839 5838 5838 5837 5836 5835 5835 5834 5834 5833 5833 5833 5832 5832 5832 5832 5831 5831 5831 5831 5831 5831 5831 5831 5831 5831 5831 5831 5831 5831 5831 5831 5830 5830 5830 5830 5830
5876 5876 5875 5875 5875 5875 5874 5874 5873 5872 5872 5871 5871 5871 5871 5870 5869 5869 5868 5868 5867 5867 5866 5865 5865 5864 5863 5861 5860 5859 5858 5856 5855 5854 5853 5851 5850 5849 5848 5847 5846 5845 5844 5843 5842 5841 5841 5840 5839 5839 5838 5837 5836 5835 5835 5834 5834 5833 5833 5833 5832 5832 5832 5832 5832 5832 5832 5831 5831 5831 5831 5831 5831 5831 5831 5831 5831 5831 5831 5831 5831 5831 5831 5830 5830
5875 5875 5875 5875 5874 5874 5874 5873 5873 5872 5871 5871 5871 5871 5870 5870 5869 5869 5868 5867 5867 5866 5866 5865 5864 5863 5862 5860 5859 5858 5857 5856 5855 5853 5852 5851 5850 5849 5848 5847 5846 5844 5843 5843 5842 5841 5840 5840 5839 5839 5838 5837 5836 5835 5835 5834 5834 5834 5833 5833 5833 5833 5832 5832 5832 5832 5832 5832 5832 5831 5831 5831 5831 5831 5831 5831 5831 5831 5831 5831 5831 5831 5831 5831 5830
5874 5874 5874 5874 5874 5873 5873 5873 5872 5871 5871 5871 5871 5870 5870 5869 5869 5868 5867 5866 5866 5865 5865 5864 5863 5862 5861 5860 5858 5857 5856 5855 5854 5853 5852 5851 5849 5848 5847 5846 5845 5844 5843 5842 5841 5841 5840 5840 5839 5839 5838 5837 5836 5836 5835 5835 5835 5834 5834 5833 5833 5833 5833 5832 5832 5832 5832 5832 5832 5832 5832 5832 5832 5831 5831 5831 5831 5831 5831 5831 5831 5831 5831 5831 5830
5874 5874 5874 5874 5873 5873 5873 5872 5872 5871 5871 5870 5870 5870 5869 5869 5868 5867 5866 5866 5865 5864 5864 5863 5862 5861 5860 5859 5858 5857 5856 5855 5854 5853 5851 5850 5849 5848 5847 5846 5845 5844 5843 5842 5842 5841 5840 5840 5839 5839 5838 5837 5836 5836 5836 5835 5835 5835 5834 5834 5833 5833 5833 5833 5832 5832 5832 5832 5832 5832 5832 5832 5832 5832 5831 5831 5831 5831 5831 5831 5831 5831 5831 5831 5831
5874 5874 5874 5873 5873 5873 5872 5872 5871 5870 5870 5870 5869 5869 5868 5868 5867 5866 5866 5865 5864 5863 5863 5862 5861 5861 5860 5858 5857 5856 5855 5854 5854 5852 5851 5850 5849 5848 5846 5845 5845 5844 5843 5843 5842 5841 5840 5840 5839 5839 5838 5837 5836 5836 5836 5836 5835 5835 5835 5834 5834 5834 5833 5833 5833 5833 5833 5833 5833 5832 5832 5832 5832 5831 5831 5831 5831 5832 5832 5832 5832 5831 5831 5831 5830
5873 5873 5873 5873 5873 5872 5872 5871 5870 5869 5869 5869 5868 5868 5867 5867 5866 5865 5865 5864 5863 5862 5862 5861 5860 5860 5859 5858 5856 5856 5855 5854 5853 5852 5851 5850 5849 5847 5846 5845 5844 5844 5843 5843 5842 5842 5841 5840 5839 5839 5838 5837 5837 5836 5836 5836 5836 5835 5835 5834 5834 5834 5834 5834 5833 5833 5833 5833 5833 5833 5832 5832 5832 5831 5831 5831 5831 5832 5832 5832 5831 5831 5831 5831 5830
5873 5873 5873 5873 5872 5871 5870 5870 5869 5868 5868 5868 5867 5867 5866 5866 5865 5864 5864 5863 5862 5861 5860 5860 5859 5859 5858 5857 5856 5855 5854 5854 5853 5852 5851 5849 5848 5847 5846 5845 5845 5844 5843 5843 5842 5842 5841 5840 5839 5839 5838 5838 5837 5836 5836 5836 5836 5835 5835 5834 5834 5834 5834 5834 5834 5833 5833 5833 5833 5833 5832 5832 5832 5832 5832 5832 5831 5832 5832 5831 5831 5831 5831 5831 5830
5872 5872 5872 5872 5871 5870 5869 5868 5868 5867 5867 5867 5866 5866 5865 5865 5864 5863 5862 5861 5861 5860 5859 5859 5859 5858 5857 5857 5856 5855 5854 5853 5853 5852 5850 5849 5848 5847 5846 5846 5845 5844 5843 5843 5842 5842 5841 5841 5840 5839 5838 5838 5837 5837 5836 5836 5836 5836 5835 5835 5834 5834 5834 5834 5834 5834 5833 5833 5833 5833 5832 5832 5832 5832 5832 5832 5832 5832 5832 5831 5831 5831 5831 5830 5830
5871 5871 5871 5870 5870 5869 5868 5867 5866 5866 5866 5865 5865 5864 5863 5863 5863 5862 5861 5860 5860 5859 5859 5858 5858 5857 5857 5856 5855 5854 5854 5853 5852 5852 5850 5849 5848 5847 5846 5846 5845 5844 5843 5843 5842 5842 5841 5841 5840 5839 5838 5838 5837 5837 5836 5836 5836 5835 5835 5835 5835 5835 5834 5834 5834 5834 5833 5833 5833 5833 5833 5832 5832 5832 5832 5832 5832 5832 5831 5831 5831 5831 5830 5830 5830
5871 5870 5869 5869 5868 5867 5866 5866 5865 5865 5864 5864 5863 5863 5862 5862 5861 5861 5860 5859 5859 5858 5858 5857 5857 5856 5856 5856 5855 5854 5853 5853 5852 5851 5850 5849 5848 5847 5847 5846 5845 5845 5844 5843 5842 5842 5841 5841 5840 5839 5838 5838 5837 5837 5836 5836 5836 5836 5835 5835 5835 5835 5835 5835 5834 5834 5834 5834 5833 5833 5833 5833 5833 5833 5832 5832 5832 5831 5831 5831 5831 5830 5830 5830 5830
5870 5869 5868 5867 5866 5866 5865 5864 5864 5863 5863 5862 5862 5861 5861 5861 5860 5860 5859 5859 5858 5857 5857 5857 5856 5856 5856 5856 5855 5854 5853 5853 5852 5851 5850 5849 5848 5847 5847 5846 5846 5845 5844 5843 5842 5842 5841 5841 5840 5839 5838 5838 5837 5837 5836 5836 5836 5836 5836 5835 5835 5835 5835 5835 5834 5834 5834 5834 5834 5833 5833 5833 5833 5833 5832 5832 5832 5831 5831 5831 5830 5830 5830 5830 5830
5868 5867 5866 5865 5864 5864 5863 5863 5862 5862 5861 5861 5860 5860 5860 5860 5859 5859 5858 5858 5857 5857 5857 5856 5856 5855 5855 5855 5854 5853 5853 5852 5851 5851 5849 5848 5847 5847 5847 5846 5845 5845 5844 5843 5842 5842 5841 5840 5839 5838 5838 5837 5837 5836 5836 5836 5835 5836 5835 5835 5835 5835 5835 5834 5834 5834 5834 5834 5834 5833 5833 5833 5832 5832 5832 5832 5832 5832 5831 5831 5830 5830 5830 5830 5829
5866 5865 5864 5863 5862 5861 5861 5861 5860 5860 5860 5860 5859 5859 5859 5859 5858 5858 5857 5857 5857 5856 5856 5856 5855 5855 5855 5854 5853 5853 5852 5852 5851 5850 5849 5847 5846 5846 5846 5846 5845 5845 5844 5843 5842 5842 5841 5840 5839 5839 5838 5838 5837 5836 5836 5835 5835 5835 5835 5835 5835 5835 5834 5834 5834 5834 5834 5834 5833 5833 5833 5833 5832 5832 5832 5832 5832 5831 5831 5831 5830 5830 5830 5829 5829
5864 5863 5862 5860 5859 5859 5858 5858 5858 5858 5858 5858 5858 5858 5858 5857 5857 5857 5856 5856 5856 5856 5856 5855 5855 5854 5854 5853 5852 5852 5851 5851 5850 5850 5849 5847 5845 5845 5846 5846 5845 5845 5844 5843 5842 5842 5841 5840 5839 5838 5838 5838 5837 5836 5836 5835 5835 5835 5835 5835 5835 5834 5834 5834 5834 5834 5834 5833 5833 5833 5833 5832 5832 5832 5832 5832 5831 5831 5831 5830 5830 5830 5829 5829 5829
5861 5860 5859 5857 5856 5856 5856 5856 5857 5857 5857 5857 5857 5856 5856 5856 5856 5855 5855 5855 5854 5854 5854 5854 5853 5853 5853 5852 5851 5851 5851 5850 5850 5849 5848 5847 5845 5844 5845 5846 5845 5844 5844 5843 5842 5842 5841 5840 5839 5838 5838 5838 5837 5836 5836 5835 5835 5835 5835 5835 5835 5834 5834 5834 5834 5833 5833 5833 5833 5833 5832 5832 5832 5832 5831 5831 5831 5831 5831 5830 5830 5829 5829 5829 5828
5859 5857 5856 5854 5853 5853 5855 5856 5856 5856 5856 5856 5855 5855 5855 5854 5854 5853 5853 5853 5852 5852 5852 5852 5852 5852 5851 5851 5851 5850 5850 5850 5850 5849 5848 5847 5845 5843 5843 5845 5845 5844 5843 5843 5842 5842 5841 5841 5840 5838 5838 5837 5837 5836 5836 5835 5834 5834 5834 5834 5834 5834 5834 5833 5833 5833 5833 5833 5833 5832 5832 5832 5832 5831 5831 5831 5831 5831 5830 5830 5829 5829 5829 5828 5828
5856 5852 5850 5850 5852 5854 5856 5857 5857 5856 5855 5855 5855 5854 5854 5853 5852 5852 5851 5850 5850 5850 5850 5850 5850 5850 5850 5850 5850 5849 5849 5849 5849 5848 5848 5846 5844 5843 5842 5843 5844 5844 5843 5842 5842 5841 5841 5840 5840 5839 5838 5837 5836 5836 5835 5835 5834 5834 5834 5834 5834 5833 5833 5833 5833 5832 5832 5832 5832 5832 5832 5832 5832 5831 5831 5831 5830 5830 5830 5829 5829 5828 5828 5828 5827
5851 5849 5850 5852 5855 5856 5858 5858 5857 5856 5856 5856 5856 5855 5854 5853 5852 5851 5850 5849 5849 5849 5848 5848 5848 5848 5848 5848 5848 5848 5848 5848 5848 5848 5847 5846 5844 5842 5841 5841 5842 5843 5843 5841 5841 5840 5840 5840 5839 5839 5838 5837 5836 5835 5835 5834 5834 5834 5833 5833 5833 5833 5832 5832 5832 5832 5832 5832 5832 5832 5832 5832 5831 5831 5831 5830 5830 5830 5829 5829 5828 5828 5827 5827 5827
5849 5851 5854 5855 5856 5856 5857 5856 5855 5855 5856 5856 5855 5855 5854 5853 5852 5850 5849 5848 5848 5847 5847 5846 5846 5846 5846 5847 5847 5847 5847 5847 5847 5847 5846 5845 5843 5841 5840 5840 5840 5841 5842 5841 5840 5839 5839 5839 5838 5838 5837 5836 5836 5835 5834 5834 5834 5833 5833 5833 5832 5832 5832 5832 5832 5831 5831 5831 5832 5832 5832 5832 5831 5831 5830 5830 5830 5829 5829 5828 5828 5827 5827 5826 5826
5851 5853 5854 5853 5853 5854 5854 5853 5853 5853 5853 5854 5853 5853 5852 5850 5849 5848 5847 5847 5847 5846 5846 5846 5845 5845 5845 5845 5845 5846 5846 5846 5846 5845 5845 5844 5842 5841 5839 5839 5838 5839 5840 5840 5839 5838 5838 5837 5837 5837 5836 5836 5835 5835 5834 5833 5833 5833 5832 5832 5832 5831 5831 5831 5831 5831 5831 5831 5831 5831 5831 5831 5831 5831 5830 5830 5829 5829 5828 5828 5827 5827 5826 5826 5825
5851 5852 5852 5852 5852 5852 5851 5851 5851 5850 5851 5851 5850 5849 5848 5846 5845 5845 5845 5845 5845 5845 5844 5844 5844 5844 5844 5844 5844 5844 5845 5845 5845 5844 5843 5843 5842 5840 5838 5838 5837 5837 5837 5838 5838 5837 5837 5836 5836 5836 5836 5835 5835 5834 5833 5833 5832 5832 5832 5832 5831 5831 5831 5831 5831 5831 5831 5831 5831 5831 5831 5831 5830 5830 5829 5829 5828 5828 5828 5827 5827 5826 5826 5825 5824
5851 5851 5850 5850 5850 5849 5849 5849 5849 5848 5848 5847 5846 5844 5843 5842 5842 5842 5842 5842 5842 5841 5842 5842 5842 5842 5842 5842 5842 5842 5843 5844 5843 5842 5842 5841 5841 5839 5837 5836 5836 5835 5835 5836 5836 5836 5836 5835 5835 5835 5835 5834 5834 5834 5833 5832 5832 5832 5831 5831 5831 5830 5830 5830 5830 5830 5830 5831 5831 5831 5831 5830 5830 5829 5829 5828 5828 5827 5827 5826 5826 5825 5824 5824 5823
5849 5849 5849 5848 5848 5848 5848 5847 5846 5846 5845 5844 5842 5840 5839 5838 5838 5839 5839 5839 5838 5838 5839 5839 5840 5840 5840 5840 5840 5840 5840 5841 5841 5841 5840 5840 5839 5838 5837 5835 5834 5834 5834 5834 5834 5834 5834 5834 5834 5834 5834 5834 5834 5833 5832 5832 5831 5831 5831 5831 5830 5830 5830 5829 5829 5830 5830 5830 5830 5830 5830 5830 5829 5829 5828 5828 5827 5826 5826 5825 5825 5824 5823 5823 5822
5848 5848 5847 5847 5846 5846 5846 5845 5843 5842 5842 5840 5839 5837 5835 5835 5836 5837 5836 5836 5836 5835 5836 5837 5837 5838 5837 5837 5837 5837 5838 5839 5839 5839 5839 5838 5838 5837 5836 5834 5833 5832 5832 5832 5832 5833 5833 5833 5833 5833 5833 5833 5833 5833 5832 5831 5831 5831 5831 5830 5830 5830 5829 5829 5829 5830 5830 5829 5829 5829 5829 5829 5829 5828 5828 5827 5826 5826 5825 5824 5823 5822 5822 5821 5821
5847 5846 5846 5846 5846 5845 5844 5843 5840 5838 5838 5836 5835 5835 5833 5832 5834 5834 5834 5834 5833 5833 5834 5835 5835 5835 5835 5834 5834 5834 5835 5836 5837 5837 5837 5837 5836 5836 5835 5833 5832 5831 5831 5831 5831 5831 5832 5832 5831 5831 5832 5832 5832 5832 5832 5831 5831 5831 5830 5830 5830 5829 5829 5828 5829 5829 5829 5829 5829 5829 5828 5828 5828 5827 5827 5826 5826 5825 5824 5823 5822 5821 5820 5820 5819
5845 5844 5844 5844 5844 5842 5841 5840 5836 5834 5834 5833 5832 5834 5833 5831 5832 5833 5833 5833 5832 5832 5832 5833 5833 5832 5832 5832 5832 5832 5832 5833 5834 5834 5834 5835 5835 5834 5833 5832 5831 5830 5830 5830 5830 5830 5830 5830 5830 5830 5830 5831 5831 5831 5831 5831 5830 5830 5829 5829 5829 5829 5828 5828 5828 5829 5829 5828 5828 5828 5828 5828 5827 5827 5826 5826 5825 5824 5823 5822 5822 5821 5820 5819 5818
5843 5842 5842 5842 5841 5840 5839 5838 5835 5833 5833 5832 5832 5832 5832 5831 5832 5832 5832 5832 5831 5832 5831 5830 5830 5830 5830 5829 5829 5830 5831 5831 5831 5832 5832 5832 5833 5833 5832 5831 5830 5829 5829 5829 5829 5829 5829 5829 5829 5829 5829 5830 5830 5830 5830 5830 5830 5829 5829 5828 5828 5828 5828 5828 5828 5828 5828 5828 5828 5828 5827 5827 5827 5826 5826 5825 5824 5824 5823 5822 5821 5820 5819 5818 5817
5842 5842 5841 5839 5839 5838 5837 5836 5835 5834 5833 5833 5833 5833 5833 5832 5831 5831 5831 5830 5831 5831 5830 5830 5829 5829 5829 5828 5828 5828 5828 5829 5829 5830 5830 5830 5831 5831 5830 5830 5829 5828 5828 5828 5828 5828 5829 5828 5828 5828 5828 5829 5829 5829 5829 5829 5829 5829 5828 5828 5827 5827 5827 5827 5827 5827 5827 5827 5827 5827 5827 5827 5826 5826 5825 5825 5824 5823 5822 5821 5820 5819 5818 5817 5816
5841 5841 5839 5837 5837 5837 5837 5835 5834 5835 5834 5833 5832 5832 5832 5832 5832 5831 5831 5831 5830 5829 5829 5830 5829 5829 5828 5827 5826 5826 5826 5827 5827 5827 5828 5828 5829 5829 5829 5828 5828 5827 5827 5827 5827 5828 5828 5827 5827 5827 5828 5828 5828 5828 5828 5828 5828 5828 5827 5827 5827 5827 5827 5827 5827 5827 5827 5827 5827 5827 5827 5826 5826 5825 5824 5824 5823 5822 5822 5821 5820 5818 5817 5816 5815
5840 5840 5838 5836 5837 5837 5835 5833 5833 5834 5835 5834 5832 5831 5830 5831 5833 5832 5831 5830 5830 5829 5829 5829 5829 5828 5826 5825 5825 5825 5824 5825 5825 5825 5825 5827 5828 5828 5827 5827 5826 5825 5825 5825 5825 5826 5826 5826 5827 5827 5827 5827 5827 5827 5827 5827 5827 5827 5826 5826 5826 5826 5826 5826 5827 5827 5826 5827 5827 5826 5826 5826 5825 5825 5824 5823 5823 5822 5821 5820 5819 5818 5817 5816 5815
5839 5838 5837 5836 5837 5837 5835 5833 5832 5832 5833 5834 5834 5833 5831 5830 5830 5831 5829 5828 5828 5828 5827 5827 5827 5827 5824 5823 5824 5823 5823 5823 5823 5823 5823 5825 5826 5826 5825 5825 5824 5824 5823 5823 5824 5824 5824 5825 5826 5826 5826 5826 5826 5826 5826 5826 5826 5826 5825 5825 5825 5825 5825 5826 5826 5826 5826 5826 5826 5826 5826 5825 5825 5824 5823 5823 5822 5821 5820 5820 5819 5817 5816 5815 5815
5837 5836 5835 5835 5835 5835 5834 5833 5831 5832 5832 5833 5833 5833 5831 5829 5828 5829 5827 5826 5827 5827 5826 5826 5826 5825 5822 5821 5822 5822 5822 5822 5822 5822 5822 5823 5823 5824 5824 5823 5823 5823 5822 5822 5822 5822 5822 5823 5824 5824 5825 5825 5825 5825 5825 5825 5825 5825 5825 5825 5825 5825 5825 5825 5825 5825 5825 5825 5826 5826 5825 5825 5824 5824 5823 5822 5821 5821 5820 5819 5818 5817 5816 5815 5814
5836 5836 5834 5833 5833 5833 5832 5831 5831 5831 5831 5831 5830 5830 5829 5827 5827 5827 5825 5824 5825 5825 5825 5825 5824 5823 5821 5820 5821 5821 5820 5820 5820 5820 5820 5821 5821 5821 5822 5822 5822 5822 5821 5820 5820 5820 5820 5820 5821 5822 5823 5824 5824 5824 5824 5824 5824 5824 5824 5824 5824 5824 5824 5824 5825 5825 5825 5825 5825 5825 5825 5824 5823 5823 5822 5821 5820 5820 5819 5818 5817 5816 5815 5814 5814
5835 5835 5833 5831 5831 5830 5830 5829 5829 5829 5829 5829 5828 5827 5826 5825 5824 5824 5823 5822 5823 5823 5823 5823 5822 5820 5818 5819 5820 5819 5818 5819 5818 5817 5817 5818 5819 5819 5819 5820 5820 5820 5820 5819 5819 5818 5818 5818 5819 5820 5821 5822 5822 5823 5823 5823 5823 5823 5823 5823 5823 5823 5823 5824 5824 5824 5824 5824 5824 5824 5824 5823 5822 5822 5821 5821 5820 5819 5819 5818 5817 5816 5815 5814 5813
5833 5833 5832 5830 5828 5827 5826 5825 5825 5826 5826 5826 5825 5824 5823 5823 5823 5822 5822 5821 5822 5823 5822 5821 5820 5817 5816 5817 5818 5816 5816 5816 5815 5815 5815 5815 5816 5817 5817 5818 5818 5818 5818 5818 5817 5817 5817 5817 5817 5818 5819 5820 5821 5821 5822 5822 5822 5822 5822 5822 5823 5823 5823 5823 5823 5823 5823 5823 5823 5824 5824 5822 5822 5821 5820 5820 5819 5819 5818 5817 5816 5815 5815 5814 5813
5832 5831 5831 5830 5827 5825 5824 5822 5822 5822 5822 5822 5822 5822 5822 5821 5821 5821 5820 5819 5819 5821 5821 5820 5818 5814 5813 5815 5815 5814 5814 5813 5813 5813 5813 5813 5813 5814 5814 5815 5816 5816 5816 5816 5816 5815 5815 5815 5815 5816 5817 5818 5819 5820 5820 5821 5821 5821 5821 5821 5822 5821 5821 5822 5822 5822 5823 5822 5822 5823 5823 5822 5821 5820 5819 5819 5818 5817 5817 5816 5816 5815 5814 5813 5812
5829 5829 5829 5828 5827 5825 5824 5822 5821 5820 5820 5819 5820 5821 5821 5820 5820 5819 5819 5818 5817 5818 5819 5818 5817 5813 5813 5814 5813 5813 5812 5811 5811 5811 5811 5811 5811 5811 5812 5812 5813 5813 5814 5815 5814 5814 5813 5814 5814 5815 5816 5817 5817 5818 5819 5819 5819 5819 5819 5819 5820 5820 5820 5820 5821 5822 5822 5822 5822 5822 5822 5821 5820 5819 5818 5818 5817 5817 5817 5816 5815 5814 5814 5813 5812
5827 5827 5826 5826 5826 5826 5825 5823 5822 5821 5820 5820 5820 5820 5820 5820 5819 5818 5817 5816 5815 5815 5816 5816 5815 5812 5812 5813 5812 5811 5811 5809 5809 5809 5810 5809 5809 5809 5810 5810 5810 5810 5812 5813 5813 5812 5812 5812 5813 5813 5814 5815 5816 5816 5817 5817 5818 5817 5817 5818 5818 5819 5819 5819 5819 5820 5821 5821 5821 5821 5821 5820 5820 5818 5818 5817 5816 5816 5816 5815 5815 5814 5813 5813 5812
5824 5824 5824 5825 5824 5824 5824 5824 5823 5822 5821 5820 5819 5819 5820 5819 5818 5817 5816 5815 5814 5813 5813 5813 5812 5811 5810 5810 5810 5809 5809 5809 5809 5809 5809 5808 5808 5808 5809 5809 5810 5810 5810 5811 5811 5810 5810 5811 5811 5812 5813 5813 5814 5814 5815 5815 5815 5816 5816 5816 5817 5817 5818 5818 5818 5819 5819 5820 5820 5820 5820 5820 5819 5818 5817 5817 5816 5815 5815 5815 5815 5814 5813 5812 5812
5822 5822 5822 5822 5822 5822 5823 5823 5822 5822 5821 5820 5819 5819 5819 5818 5817 5816 5815 5814 5813 5811 5811 5811 5810 5809 5808 5807 5807 5807 5807 5808 5808 5807 5806 5806 5806 5806 5808 5809 5808 5808 5809 5809 5809 5809 5809 5809 5810 5810 5811 5811 5811 5812 5812 5813 5813 5814 5814 5815 5815 5815 5816 5816 5817 5817 5818 5818 5819 5819 5819 5819 5818 5818 5817 5816 5815 5814 5814 5814 5814 5814 5813 5812 5812
5820 5820 5820 5820 5820 5821 5821 5821 5821 5820 5820 5819 5818 5818 5817 5816 5816 5815 5813 5812 5811 5810 5809 5809 5808 5807 5806 5805 5805 5805 5804 5805 5804 5803 5802 5803 5803 5804 5806 5806 5806 5806 5806 5806 5807 5807 5807 5808 5808 5809 5809 5809 5809 5810 5810 5811 5812 5813 5813 5814 5814 5814 5814 5814 5815 5816 5817 5817 5817 5817 5818 5818 5818 5817 5816 5815 5815 5814 5813 5813 5814 5813 5813 5812 5812
5818 5818 5818 5818 5819 5819 5819 5819 5819 5819 5818 5817 5816 5816 5815 5814 5814 5812 5811 5810 5809 5808 5807 5806 5805 5805 5804 5804 5803 5803 5803 5802 5801 5800 5800 5800 5800 5801 5802 5802 5802 5803 5803 5803 5804 5805 5806 5806 5806 5807 5808 5808 5808 5808 5808 5809 5810 5811 5811 5812 5813 5813 5813 5813 5814 5815 5815 5816 5816 5816 5816 5817 5817 5816 5815 5815 5814 5814 5813 5813 5813 5812 5812 5812 5811
5816 5816 5816 5816 5817 5817 5817 5817 5817 5817 5816 5815 5814 5813 5813 5812 5812 5810 5809 5808 5807 5806 5805 5804 5803 5803 5803 5802 5801 5801 5801 5800 5799 5798 5798 5798 5798 5799 5800 5799 5799 5800 5801 5802 5802 5803 5804 5804 5805 5805 5806 5806 5806 5806 5806 5807 5809 5810 5810 5810 5811 5812 5812 5813 5813 5814 5815 5815 5815 5815 5815 5816 5816 5815 5814 5814 5814 5813 5812 5812 5812 5811 5811 5810 5810
5814 5814 5814 5815 5815 5815 5815 5815 5815 5815 5814 5813 5812 5811 5811 5810 5809 5809 5807 5806 5805 5803 5802 5802 5801 5800 5800 5799 5799 5798 5799 5798 5797 5796 5795 5795 5795 5796 5797 5797 5797 5798 5800 5800 5799 5800 5802 5802 5803 5804 5804 5804 5805 5804 5804 5805 5807 5808 5808 5809 5809 5810 5811 5811 5812 5813 5814 5814 5814 5814 5814 5814 5814 5814 5814 5813 5813 5812 5812 5812 5812 5811 5810 5809 5809
5812 5812 5813 5813 5813 5813 5813 5813 5813 5812 5812 5811 5810 5809 5809 5808 5807 5806 5805 5804 5802 5800 5799 5799 5798 5798 5797 5796 5796 5795 5796 5796 5795 5794 5793 5792 5792 5793 5793 5794 5795 5796 5797 5797 5796 5798 5799 5800 5801 5801 5802 5802 5802 5802 5802 5804 5805 5806 5807 5807 5808 5809 5809 5810 5810 5811 5812 5813 5812 5812 5812 5812 5813 5813 5813 5812 5812 5812 5812 5812 5812 5811 5810 5809 5809
5811 5810 5811 5811 5811 5811 5811 5811 5811 5810 5810 5808 5808 5807 5807 5806 5805 5803 5802 5801 5799 5798 5796 5795 5795 5795 5794 5794 5793 5792 5793 5793 5793 5792 5790 5790 5790 5790 5790 5791 5793 5793 5794 5794 5794 5795 5797 5797 5798 5798 5799 5799 5800 5801 5800 5801 5802 5803 5804 5806 5806 5807 5807 5808 5809 5810 5811 5811 5810 5810 5810 5810 5811 5811 5811 5811 5811 5811 5811 5811 5811 5811 5810 5808 5808
5808 5808 5808 5809 5809 5809 5809 5809 5808 5808 5807 5806 5806 5805 5804 5804 5802 5801 5800 5798 5797 5796 5794 5793 5792 5792 5792 5791 5790 5790 5790 5790 5790 5790 5789 5788 5788 5788 5788 5789 5790 5791 5792 5792 5792 5793 5794 5795 5795 5796 5797 5796 5798 5799 5798 5799 5800 5801 5802 5803 5804 5805 5806 5806 5807 5808 5808 5809 5808 5808 5808 5808 5809 5809 5809 5809 5809 5809 5809 5809 5810 5809 5809 5808 5808
5806 5806 5806 5806 5806 5806 5806 5806 5806 5806 5805 5804 5803 5803 5802 5801 5800 5798 5797 5796 5795 5794 5792 5791 5790 5789 5789 5789 5788 5788 5788 5788 5788 5787 5786 5785 5785 5785 5786 5787 5788 5789 5790 5790 5789 5789 5791 5791 5793 5794 5795 5794 5795 5796 5796 5797 5799 5799 5801 5801 5802 5803 5804 5805 5805 5806 5806 5806 5807 5807 5807 5807 5807 5807 5807 5807 5808 5808 5808 5808 5808 5808 5808 5807 5807
5803 5804 5804 5804 5804 5804 5804 5804 5803 5803 5802 5801 5800 5800 5799 5798 5797 5796 5795 5794 5793 5791 5790 5789 5788 5787 5787 5787 5786 5785 5786 5785 5785 5784 5783 5783 5783 5783 5783 5784 5784 5785 5786 5787 5786 5786 5788 5789 5790 5791 5792 5792 5792 5793 5794 5796 5797 5797 5798 5800 5800 5801 5802 5803 5803 5804 5804 5805 5805 5805 5805 5805 5805 5805 5805 5806 5806 5806 5806 5806 5807 5807 5806 5806 5805
5801 5801 5802 5802 5801 5801 5801 5801 5801 5800 5800 5798 5797 5797 5796 5795 5795 5793 5792 5791 5790 5789 5788 5786 5785 5785 5785 5785 5784 5784 5784 5783 5782 5782 5781 5781 5781 5781 5781 5781 5780 5781 5782 5783 5783 5784 5785 5786 5787 5789 5789 5789 5790 5792 5793 5794 5795 5795 5796 5797 5799 5799 5800 5801 5801 5802 5802 5803 5803 5803 5803 5803 5803 5803 5803 5804 5804 5804 5805 5805 5805 5805 5805 5804 5803